User: anonymous   Login
Location: Unspecified
(0.0000°N, 0.0000°E)
Time: 22:46:25
(UTC+00:00)
Language:

STARLINK-34071 - Orbit

View from above orbital plane
View from above orbital plane
View from above satellite
View from above satellite

Ground track
Ground track

The orbit is defined by the following mean orbital elements,

1 63910U          26145.37699878 +.00000000 +00000-0 +24228-3 0 00008
2 63910  42.9983 103.3424 0001212 269.9945  90.0767 15.27582950    06
Epoch (UTC): 25 May 2026 09:02:52
Eccentricity: 0.0001212
inclination: 42.9983°
perigee height: 482 km
apogee height: 484 km
right ascension of ascending node: 103.3424°
argument of perigee: 269.9945°
revolutions per day: 15.27582950
mean anomaly at epoch: 90.0767°

The dashed part of the orbit path shows where the satellite is in the earth's shadow,  

DLR